Location: Chittendens Corners
(41.2320°N, 81.4940°W)
Time: 08:26:23
(UTC+00:00)

AQUARIUS - Pass Details

Date: 29 October 2020
Orbit: 650 x 653 km, 98.0° (Epoch: 26 November)

Event Time Altitude Azimuth Distance (km) Brightness Sun altitude
Rises 23:00:32 0° 169° (SSE) 2,959 7.6 -7.4°
Reaches altitude 10° 23:02:45 10° 170° (S) 2,053 6.8 -7.8°
Maximum altitude 23:07:14 79° 257° (WSW) 669 4.3 -8.6°
Drops below altitude 10° 23:11:45 10° 345° (NNW) 2,068 6.8 -9.5°
Sets 23:13:58 0° 347° (NNW) 2,983 7.6 -9.9°
